This is the latest recevied weather packets stored in our database for station/object SP8C-10. If no packets are shown the sender has not sent any weather packets the latest 1 day(s).
| Time | Temp. | Humidity | Pressure | Rain* | Wind** | Luminosity | Snow |
|---|---|---|---|---|---|---|---|
| 1778093607 | 33.33° C | 22% | 1007.9 hPa | - | - | - | - |
| 1778086406 | 35.56° C | 21% | 1007.4 hPa | - | - | - | - |
| 1778084606 | 35.56° C | 21% | 1007.5 hPa | - | - | - | - |
| 1778075605 | 36.67° C | 20% | 1007.3 hPa | - | - | - | - |
| 1778073805 | 36.67° C | 20% | 1007.3 hPa | - | - | - | - |
| 1778064804 | 34.44° C | 22% | 1007.6 hPa | - | - | - | - |
| 1778063004 | 33.33° C | 22% | 1007.5 hPa | - | - | - | - |
| 1778061204 | 32.78° C | 22% | 1007.6 hPa | - | - | - | - |
| 1778059404 | 31.67° C | 23% | 1007.5 hPa | - | - | - | - |
| 1778052203 | 29.44° C | 24% | 1007.5 hPa | - | - | - | - |
| 1778050403 | 28.33° C | 25% | 1007.4 hPa | - | - | - | - |
| 1778045002 | 26.11° C | 25% | 1007.9 hPa | - | - | - | - |
| 1778043202 | 25° C | 24% | 1007.9 hPa | - | - | - | - |
| 1778041402 | 23.89° C | 25% | 1008 hPa | - | - | - | - |
| 1778039602 | 23.89° C | 24% | 1007.9 hPa | - | - | - | - |
| 1778037802 | 23.89° C | 24% | 1008 hPa | - | - | - | - |
| 1778036001 | 24.44° C | 24% | 1008.2 hPa | - | - | - | - |
| 1778034201 | 25° C | 23% | 1008.2 hPa | - | - | - | - |
| 1778032401 | 26.11° C | 22% | 1008.2 hPa | - | - | - | - |
| 1778030601 | 26.11° C | 22% | 1008.3 hPa | - | - | - | - |
| 1778028801 | 26.67° C | 22% | 1008.3 hPa | - | - | - | - |
| 1778027001 | 27.22° C | 21% | 1008.3 hPa | - | - | - | - |
| 1778018000 | 31.11° C | 18% | 1008.6 hPa | - | - | - | - |
| 1778016200 | 31.11° C | 18% | 1008.6 hPa | - | - | - | - |
| 1778014400 | 31.67° C | 18% | 1008.6 hPa | - | - | - | - |
* Rain since midnight (hover to see other rain measurements)
** Current wind speed in m/s (hover to see current wind gust speed)